STARLINK-5459 (55669 NORAD) Tracking and Keplerian Element Data

This shows tracking and keplerian element data for the satellite.

Feedback or suggestion? Click here.




ElementValue
Catalog55669
NameSTARLINK-5459
Epoch Orbit130
Epoch Day62.91667824
Epoch Year2023
RAAN110.1839
Inclination69.9999
Eccentricity0.0003557
Argument of Perigee280.8418
Mean Anonmoly327.6056
Mean Motion15.75258474
Decay Rate-0.01030733
L11 55669U 23021AT 23062.91667824 -.01030733 00000+0 -75667-2 0 9996
L22 55669 69.9999 110.1839 0003557 280.8418 327.6056 15.75258474 1309



Live tracking and technical data element details for STARLINK-5459 (NORAD 55669). STARLINK-5459 can be tracked NOW for your location showing map with azimuth and elevation plus other details from your city location.







IsCatalogInMostPopularTable: catalog: 55669, numindb: 1
Update: records affected: 1



GetName: 55669 STARLINK-5459

Hit Count: updated at: Mon, 20 Mar 2023 11:56:34 GMT